Date,TemperatureHighF,TemperatureAvgF,TemperatureLowF,DewpointHighF,DewpointAvgF,DewpointLowF,HumidityHigh,HumidityAvg,HumidityLow,PressureMaxIn,PressureMinIn,WindSpeedMaxMPH,WindSpeedAvgMPH,GustSpeedMaxMPH,PrecipitationSumIn
2013-1-1,16,10,2,16,10,2,100,100,100,0.00,40.00,16,9,34,0.00
2013-1-2,22,14,6,13,-6,-21,100,48,13,0.00,40.00,13,8,24,0.00
2013-1-3,34,20,8,-8,-36,-64,33,10,1,0.00,40.00,15,8,19,0.00
2013-1-4,40,28,20,14,-44,-64,78,6,1,0.00,40.00,8,4,16,0.00
2013-1-5,40,28,19,16,3,-19,86,39,11,0.00,40.00,29,7,36,0.00
2013-1-6,30,25,23,-2,-11,-30,31,20,7,0.00,40.00,32,12,38,0.00
2013-1-7,33,25,20,-7,-18,-28,26,14,6,0.00,40.00,8,5,15,0.00
2013-1-9,32,28,25,28,25,19,100,90,58,0.00,40.00,34,28,44,0.00
2013-1-10,27,18,5,26,17,4,100,100,85,0.00,40.00,39,23,54,0.00
2013-1-11,5,0,-3,5,0,-3,100,100,100,0.00,40.00,27,12,35,0.00
2013-1-12,6,-5,-10,6,-5,-10,100,100,100,0.00,40.00,15,6,22,0.00
2013-1-13,6,-8,-12,3,-8,-12,100,98,82,0.00,40.00,6,3,12,0.00
2013-1-14,3,-4,-11,1,-6,-100,100,98,81,0.00,40.00,7,4,20,0.00
2013-1-15,20,9,-4,20,9,-4,100,100,100,0.00,40.00,14,8,30,0.00
2013-1-16,27,20,11,18,8,-5,100,66,29,0.00,40.00,19,11,42,0.00
2013-1-17,41,29,23,10,-1,-21,55,29,9,0.00,40.00,13,9,22,0.00
2013-1-18,42,30,26,0,-18,-57,30,14,1,0.00,40.00,12,5,24,0.00
2013-1-19,41,30,25,-7,-12,-18,23,16,10,0.00,40.00,10,5,19,0.00
2013-1-20,38,29,23,-3,-21,-31,21,11,5,0.00,40.00,10,4,20,0.00
2013-1-21,43,31,23,17,-10,-57,78,24,1,0.00,40.00,11,4,20,0.00
2013-1-22,54,39,32,-14,-45,-58,10,2,1,0.00,40.00,19,9,34,0.00
2013-1-23,41,35,31,31,-3,-35,100,30,3,0.00,40.00,25,15,45,0.00
2013-1-24,32,28,26,32,28,26,100,100,86,0.00,40.00,24,7,38,0.00
2013-1-25,30,27,25,30,27,25,100,100,100,0.00,40.00,14,5,19,0.00
2013-1-26,29,27,25,29,27,25,100,100,100,0.00,40.00,18,8,22,0.00
2013-1-27,26,21,12,26,21,12,100,100,100,0.00,40.00,40,17,68,0.00
2013-1-28,14,8,2,14,8,2,100,100,100,0.00,40.00,15,6,23,0.00
2013-1-29,12,8,3,12,8,3,100,100,100,0.00,40.00,18,10,34,0.00
2013-1-30,21,16,9,21,16,9,100,100,100,0.00,40.00,23,12,51,0.00
2013-1-31,24,20,17,24,20,17,100,100,100,0.00,40.00,16,6,33,0.00
2013-2-1,33,22,18,33,19,1,100,90,37,0.00,40.00,25,7,32,0.00
2013-2-2,42,28,20,20,-6,-60,69,29,1,0.00,40.00,9,4,14,0.00
2013-2-3,40,29,21,8,-24,-61,55,18,1,0.00,40.00,10,4,15,0.00
2013-2-4,31,25,19,26,13,4,100,61,39,0.00,40.00,12,7,29,0.00
2013-2-5,42,30,25,31,19,3,100,67,26,0.00,40.00,19,10,32,0.00
2013-2-6,31,24,16,26,15,-28,100,74,10,0.00,40.00,16,6,24,0.00
2013-2-7,25,21,16,21,-6,-37,100,43,6,0.00,40.00,33,18,50,0.00
2013-2-8,19,17,12,19,17,12,100,100,100,0.00,40.00,30,19,36,0.00
2013-2-9,20,12,8,20,12,7,100,100,100,0.00,40.00,16,6,25,0.00
2013-2-10,18,10,5,18,10,5,100,100,100,0.00,40.00,13,4,22,0.00
2013-2-11,22,8,2,22,8,-6,100,99,60,0.00,40.00,13,4,23,0.00
2013-2-12,23,10,2,23,10,2,100,100,100,0.00,40.00,9,5,32,0.00
2013-2-13,29,18,12,29,18,12,100,100,100,0.00,40.00,15,6,28,0.00
2013-2-14,31,18,14,31,18,12,100,99,83,0.00,40.00,11,7,33,0.00
2013-2-15,36,21,12,30,16,0,100,85,32,0.00,40.00,11,5,25,0.00
2013-2-16,37,29,24,18,4,-22,61,37,9,0.00,40.00,14,7,22,0.00
2013-2-17,30,20,7,26,8,-17,100,68,13,0.00,40.00,35,12,49,0.00
2013-2-18,17,12,6,17,3,-21,100,76,16,0.00,40.00,25,8,33,0.00
2013-2-19,24,18,15,21,11,-9,100,77,30,0.00,40.00,32,22,36,0.00
2013-2-20,27,18,14,27,18,14,100,100,100,0.00,40.00,23,12,31,0.00
2013-2-21,23,12,5,23,12,5,100,100,100,0.00,40.00,20,9,28,0.00
2013-2-22,16,9,5,16,9,5,100,100,100,0.00,40.00,14,7,30,0.00
2013-2-23,17,10,4,17,10,4,100,100,100,0.00,40.00,37,14,53,0.00
2013-2-24,20,9,4,20,9,4,100,100,100,0.00,40.00,14,8,31,0.00
2013-2-25,32,15,5,24,2,-23,100,64,15,0.00,40.00,8,4,14,0.00
2013-2-27,25,17,10,20,7,-4,100,68,31,0.00,40.00,8,4,21,0.00
2013-2-28,27,19,14,26,15,1,100,86,54,0.00,40.00,15,8,28,0.00
2013-3-1,40,25,21,40,25,21,100,100,100,0.00,40.00,25,6,43,0.00
2013-3-2,41,34,22,31,13,-20,100,46,7,0.00,40.00,18,7,33,0.00
2013-3-3,33,27,23,33,27,23,100,100,77,0.00,40.00,17,7,29,0.00
2013-3-4,24,16,11,23,12,-18,100,85,22,0.00,40.00,22,11,40,0.00
2013-3-5,31,26,13,22,-14,-67,92,28,1,0.00,40.00,28,14,39,0.00
2013-3-6,32,27,23,32,27,23,100,99,81,0.00,40.00,35,23,55,0.00
2013-3-7,30,25,21,28,23,13,100,93,49,0.00,40.00,26,9,40,0.00
2013-3-8,26,24,22,26,24,22,100,100,100,0.00,40.00,21,10,26,0.00
2013-3-9,28,22,13,28,22,13,100,100,100,0.00,40.00,16,10,30,0.00
2013-3-10,37,23,14,25,14,-2,100,74,31,0.00,40.00,16,7,28,0.00
2013-3-11,29,25,22,29,23,7,100,91,50,0.00,40.00,19,10,41,0.00
2013-3-12,38,28,24,38,28,24,100,100,100,0.00,40.00,16,8,31,0.00
2013-3-13,45,36,30,41,32,10,100,86,46,0.00,40.00,15,6,24,0.00
2013-3-14,50,43,38,28,17,8,52,36,18,0.00,40.00,14,6,20,0.00
2013-3-15,47,42,36,35,19,6,88,40,25,0.00,40.00,14,6,21,0.00
2013-3-16,38,33,28,34,20,-6,100,64,19,0.00,40.00,11,7,22,0.00
2013-3-17,31,21,15,30,21,15,100,99,76,0.00,40.00,28,16,58,0.00
2013-3-18,25,19,14,24,18,14,100,98,79,0.00,40.00,22,10,41,0.00
2013-3-19,37,25,17,20,-15,-66,100,27,1,0.00,40.00,16,8,24,0.00
2013-3-20,31,27,26,31,22,2,100,85,34,0.00,40.00,28,14,47,0.00
2013-3-21,30,18,12,30,17,6,100,95,70,0.00,40.00,31,15,47,0.00
2013-3-22,17,9,4,17,9,4,100,100,100,0.00,40.00,18,7,34,0.00
2013-3-23,18,7,3,18,7,3,100,100,100,0.00,40.00,14,7,23,0.00
2013-3-24,22,10,3,22,10,3,100,99,76,0.00,40.00,10,4,19,0.00
2013-3-25,30,19,8,29,10,-53,100,79,3,0.00,40.00,11,7,17,0.00
2013-3-26,36,28,23,31,26,19,100,93,49,0.00,40.00,23,12,37,0.00
2013-3-27,42,33,27,34,26,19,100,77,48,0.00,40.00,11,6,21,0.00
2013-3-28,41,36,32,37,27,13,100,71,40,0.00,40.00,20,9,29,0.00
2013-3-29,45,36,30,40,34,30,100,94,61,0.00,40.00,13,8,27,0.00
2013-3-30,44,38,33,39,31,-100,100,84,44,0.00,40.00,12,7,22,0.00
2013-3-31,46,38,31,35,17,-30,100,52,4,0.00,40.00,11,6,20,0.00
2013-4-1,36,30,26,36,30,26,100,100,96,0.00,40.00,30,9,71,0.00
2013-4-2,37,29,26,37,29,26,100,100,100,0.00,40.00,18,9,33,0.00
2013-4-3,49,36,29,45,32,21,100,90,54,0.00,40.00,16,6,22,0.00
2013-4-4,44,39,35,40,32,29,100,78,56,0.00,40.00,26,14,46,0.00
2013-4-5,39,32,27,38,32,27,100,98,74,0.00,40.00,34,15,50,0.00
2013-4-6,36,31,27,36,31,27,100,100,100,0.00,40.00,11,6,22,0.00
2013-4-7,36,31,26,36,29,13,100,92,38,0.00,40.00,17,8,35,0.00
2013-4-8,34,26,14,32,25,12,100,96,55,0.00,40.00,20,10,38,0.00
2013-4-9,20,10,5,20,10,5,100,100,100,0.00,40.00,23,17,41,0.00
2013-4-10,34,20,10,34,20,10,100,100,100,0.00,40.00,14,9,32,0.00
2013-4-11,40,30,26,38,29,26,100,100,80,0.00,40.00,17,6,35,0.00
2013-4-12,42,30,23,37,25,4,100,84,30,0.00,40.00,15,6,24,0.00
2013-4-13,34,28,18,32,25,8,100,88,38,0.00,40.00,24,12,38,0.00
2013-4-14,25,16,9,22,9,-9,100,78,27,0.00,40.00,20,8,33,0.00
2013-4-15,32,20,15,30,20,15,100,100,92,0.00,40.00,20,7,29,0.00
2013-4-16,24,17,11,24,17,10,100,100,100,0.00,40.00,13,7,22,0.00
2013-4-17,21,12,7,21,12,7,100,100,96,0.00,40.00,16,9,32,0.00
2013-4-18,28,16,8,14,6,-5,100,67,35,0.00,40.00,15,10,37,0.00
2013-4-19,35,26,19,35,24,13,100,96,73,0.00,40.00,16,8,25,0.00
2013-4-20,35,27,24,35,27,24,100,100,100,0.00,40.00,19,7,27,0.00
2013-4-21,37,30,25,36,28,23,100,92,73,0.00,40.00,12,6,23,0.00
2013-4-22,32,26,16,32,26,16,100,98,66,0.00,40.00,13,7,28,0.00
2013-4-23,33,21,10,18,6,-35,100,66,6,0.00,40.00,13,6,30,0.00
2013-4-24,40,29,18,13,-4,-18,53,25,8,0.00,40.00,9,5,17,0.00
2013-4-25,45,33,27,17,5,-34,56,31,4,0.00,40.00,18,9,26,0.00
2013-4-26,48,38,30,15,6,-14,41,28,10,0.00,40.00,13,6,18,0.00
2013-4-27,48,42,35,25,13,-4,65,32,16,0.00,40.00,14,7,24,0.00
2013-4-28,49,46,42,25,20,16,50,36,28,0.00,40.00,16,9,29,0.00
2013-4-29,48,42,35,36,26,14,95,54,34,0.00,40.00,13,9,28,0.00
2013-4-30,41,32,20,39,22,-3,100,70,28,0.00,40.00,17,9,30,0.00
2013-5-1,28,20,13,26,14,-3,100,82,37,0.00,40.00,15,8,31,0.00
2013-5-2,45,29,17,18,5,-11,100,46,10,0.00,40.00,15,9,26,0.00
2013-5-3,51,39,32,9,-1,-43,36,20,2,0.00,40.00,13,4,18,0.00
2013-5-13,63,60,55,29,22,17,31,24,17,0.00,40.00,16,9,21,0.00
2013-5-14,63,57,52,28,22,11,35,26,14,0.00,40.00,16,7,25,0.00
2013-5-15,61,53,47,44,30,15,86,46,17,0.00,40.00,28,11,38,0.00
2013-5-16,54,44,42,49,21,-100,100,76,34,0.00,40.00,22,13,39,0.00
2013-5-17,47,40,32,43,35,-100,100,95,61,0.00,40.00,34,14,55,0.00
2013-5-18,39,33,30,39,33,30,100,100,100,0.00,40.00,16,8,28,0.00
2013-5-19,39,33,27,39,33,27,100,100,100,0.00,40.00,16,7,52,0.00
2013-5-20,45,35,28,45,35,28,100,100,100,0.00,40.00,13,6,26,0.00
2013-5-21,50,41,34,43,33,21,100,77,34,0.00,40.00,23,10,29,0.00
2013-5-22,56,48,41,31,22,6,66,38,15,0.00,40.00,34,23,54,0.00
2013-5-23,53,44,33,37,24,11,100,50,21,0.00,40.00,41,24,69,0.00
2013-5-24,51,40,30,34,12,-15,100,40,6,0.00,40.00,20,11,32,0.00
2013-5-25,55,48,42,19,9,-3,37,21,10,0.00,40.00,23,16,45,0.00
2013-5-26,55,48,42,19,3,-4,33,16,10,0.00,40.00,30,17,41,0.00
2013-5-27,51,45,38,41,30,17,100,60,31,0.00,40.00,16,9,35,0.00
2013-5-28,45,36,29,43,34,18,100,95,34,0.00,40.00,21,9,32,0.00
2013-5-29,39,32,28,39,32,28,100,100,100,0.00,40.00,34,6,114,0.00
2013-5-30,42,34,28,41,34,28,100,97,77,0.00,40.00,12,6,24,0.00
2013-5-31,50,38,30,35,21,5,100,59,20,0.00,40.00,22,9,36,0.00
2013-6-1,60,45,34,28,16,-4,54,32,10,0.00,40.00,10,5,21,0.00
2013-6-2,65,55,46,18,11,0,27,18,9,0.00,40.00,21,12,33,0.00
2013-6-3,58,50,44,47,3,-34,100,27,2,0.00,40.00,27,11,36,0.00
2013-6-4,60,52,44,34,15,-2,68,24,12,0.00,40.00,10,5,20,0.00
2013-6-5,63,52,40,42,29,-6,100,48,9,0.00,40.00,12,5,19,0.00
2013-6-6,65,55,45,38,26,11,71,37,14,0.00,40.00,12,6,20,0.00
2013-6-7,65,57,50,38,30,20,54,36,24,0.00,40.00,11,6,24,0.00
2013-6-8,67,58,49,51,25,8,100,37,11,0.00,40.00,12,6,33,0.00
2013-6-9,73,63,54,32,20,12,27,19,11,0.00,40.00,16,6,29,0.00
2013-6-10,69,63,59,26,12,-13,25,15,4,0.00,40.00,23,13,40,0.00
2013-6-11,64,56,50,17,8,0,23,15,9,0.00,40.00,20,12,43,0.00
2013-6-12,62,57,51,37,22,8,47,27,12,0.00,40.00,25,13,50,0.00
2013-6-13,62,58,55,31,23,11,38,27,13,0.00,40.00,28,20,55,0.00
2013-6-15,58,55,54,19,9,1,22,16,11,0.00,40.00,8,5,11,0.00
2013-6-16,64,57,52,24,1,-41,27,12,1,0.00,40.00,20,13,32,0.00
2013-6-17,66,60,54,16,-10,-41,19,7,1,0.00,40.00,19,8,31,0.00
2013-6-18,65,60,55,13,-4,-42,17,8,1,0.00,40.00,28,14,42,0.00
2013-6-19,58,51,39,23,8,-17,32,19,4,0.00,40.00,28,18,57,0.00
2013-6-20,54,42,35,21,10,-3,37,27,13,0.00,40.00,17,7,25,0.00
2013-6-22,58,52,45,42,23,13,68,33,20,0.00,40.00,16,7,26,0.00
2013-6-23,61,53,43,30,16,5,36,24,14,0.00,40.00,22,11,35,0.00
2013-6-24,58,52,41,43,26,13,100,43,21,0.00,40.00,26,15,45,0.00
2013-6-25,59,47,41,54,44,41,100,91,59,0.00,40.00,16,8,23,0.00
2013-6-26,70,64,55,52,44,37,70,50,31,0.00,40.00,20,9,36,0.00
2013-6-27,78,67,61,54,41,33,64,39,26,0.00,40.00,18,6,23,0.00
2013-6-28,81,69,64,42,31,20,43,26,11,0.00,40.00,14,6,27,0.00
2013-6-29,80,70,64,37,24,18,24,18,11,0.00,40.00,10,5,17,0.00
2013-6-30,78,67,58,52,38,20,72,37,15,0.00,40.00,16,8,25,0.00
2013-7-1,78,65,60,44,33,22,42,31,20,0.00,40.00,17,12,23,0.00
2013-7-2,78,66,61,45,32,22,43,28,15,0.00,40.00,14,10,25,0.00
2013-7-3,79,68,60,51,41,22,63,39,19,0.00,40.00,12,6,23,0.00
2013-7-4,66,57,48,66,55,48,100,93,66,0.00,40.00,16,7,33,0.00
2013-7-14,74,67,59,50,42,39,73,42,32,0.00,40.00,10,4,16,0.00
2013-7-15,73,64,58,58,47,40,100,54,39,0.00,40.00,15,5,21,0.00
2013-7-16,68,61,57,62,58,54,100,91,74,0.00,40.00,13,7,17,0.00
2013-7-23,77,71,64,24,17,2,17,13,7,0.00,40.00,9,6,14,0.00
2013-7-24,66,62,59,59,30,-2,100,42,7,0.00,40.00,19,6,26,0.00
2013-7-25,75,66,58,52,38,25,74,39,19,0.00,40.00,13,5,18,0.00
2013-7-26,76,66,59,39,28,18,45,26,12,0.00,40.00,11,6,20,0.00
2013-7-27,64,58,51,62,44,12,100,71,13,0.00,40.00,17,7,25,0.00
2013-7-28,63,52,45,58,51,45,100,97,58,0.00,40.00,16,6,38,0.00
2013-7-29,61,54,50,61,49,39,100,84,53,0.00,40.00,16,8,25,0.00
2013-7-30,67,61,51,53,39,26,100,49,24,0.00,40.00,14,9,23,0.00
2013-7-31,70,63,56,51,32,19,66,34,15,0.00,40.00,16,11,30,0.00
2013-8-1,68,59,52,58,45,24,100,66,23,0.00,40.00,29,17,40,0.00
2013-8-2,67,60,52,56,26,7,100,35,10,0.00,40.00,25,11,36,0.00
2013-8-3,67,61,55,31,18,11,34,19,11,0.00,40.00,18,11,40,0.00
2013-8-4,71,62,56,34,26,18,36,25,18,0.00,40.00,18,10,31,0.00
2013-8-5,72,62,55,48,33,20,57,36,17,0.00,40.00,19,8,31,0.00
2013-8-6,75,63,57,35,26,7,43,25,8,0.00,40.00,12,6,19,0.00
2013-8-7,73,60,50,50,29,12,100,34,15,0.00,40.00,25,7,40,0.00
2013-8-8,70,57,48,51,38,17,100,54,19,0.00,40.00,19,7,36,0.00
2013-8-9,63,54,47,50,36,23,100,54,24,0.00,40.00,36,15,47,0.00
2013-8-10,63,55,51,47,41,21,73,60,20,0.00,40.00,28,16,34,0.00
2013-8-11,66,58,51,48,39,20,76,53,19,0.00,40.00,23,13,31,0.00
2013-8-12,60,55,52,50,41,26,77,60,31,0.00,40.00,19,12,26,0.00
2013-8-13,70,58,52,47,27,-100,74,35,11,0.00,40.00,14,8,23,0.00
2013-8-14,69,56,52,42,26,-100,69,38,11,0.00,40.00,20,13,25,0.00
2013-8-15,74,41,59,20,-25,-100,22,11,6,0.00,40.00,14,8,23,0.00
2013-8-16,71,61,62,26,13,-100,24,18,13,0.00,40.00,9,5,21,0.00
2013-8-17,72,61,46,53,35,-100,100,43,20,0.00,40.00,27,9,43,0.00
2013-8-18,73,64,57,56,45,35,68,52,33,0.00,40.00,13,6,16,0.00
2013-8-19,74,59,53,59,36,-100,100,57,32,0.00,40.00,17,6,69,0.00
2013-9-6,69,62,55,58,46,31,100,64,24,0.00,40.00,17,10,29,0.00
2013-9-7,69,55,45,63,52,-100,100,95,55,0.00,40.00,20,8,37,0.00
2013-9-8,56,49,43,56,49,43,100,100,100,0.00,40.00,14,6,20,0.00
2013-9-9,60,51,47,56,50,45,100,98,62,0.00,40.00,8,4,13,0.00
2013-9-10,55,49,45,55,49,45,100,100,100,0.00,40.00,18,8,27,0.00
2013-9-11,59,48,43,59,48,43,100,100,100,0.00,40.00,23,13,28,0.00
2013-9-12,53,47,40,53,47,40,100,100,100,0.00,40.00,33,13,48,0.00
2013-9-13,50,46,43,50,46,43,100,100,100,0.00,40.00,16,11,28,0.00
2013-9-16,63,56,50,57,50,45,100,84,55,0.00,40.00,22,11,32,0.00
2013-9-17,54,50,47,54,50,47,100,100,100,0.00,40.00,23,16,44,0.00
2013-9-18,38,38,38,3,0,-3,22,20,17,0.00,40.00,9,8,14,0.00
2013-9-19,55,43,33,37,30,5,100,64,25,0.00,40.00,14,5,17,0.00
2013-9-20,60,49,41,39,25,12,67,40,21,0.00,40.00,22,15,30,0.00
2013-9-21,58,51,47,37,28,-100,67,43,30,0.00,40.00,30,19,52,0.00
2013-9-22,52,45,37,48,38,32,100,78,54,0.00,40.00,23,14,42,0.00
2013-9-23,48,39,32,43,36,22,100,91,44,0.00,40.00,12,7,31,0.00
2013-9-24,55,47,39,37,22,-2,93,43,10,0.00,40.00,37,19,51,0.00
2013-9-25,48,36,24,38,26,17,100,74,29,0.00,40.00,28,18,52,0.00
2013-9-26,35,27,24,35,27,24,100,100,100,0.00,40.00,14,6,31,0.00
2013-9-27,29,24,22,29,24,22,100,100,100,0.00,40.00,18,6,30,0.00
2013-9-28,44,33,25,41,25,-100,100,79,19,0.00,40.00,13,7,21,0.00
2013-9-29,51,42,36,35,20,6,74,41,27,0.00,40.00,22,13,40,0.00
2013-9-30,55,47,40,29,23,18,48,39,34,0.00,40.00,21,11,43,0.00
2013-10-1,53,49,47,18,18,17,31,29,24,0.00,40.00,13,9,24,0.00
2013-10-2,51,44,34,43,30,19,100,59,32,0.00,40.00,24,11,44,0.00
2013-10-3,39,26,19,39,26,19,100,100,100,0.00,40.00,29,10,43,0.00
2013-10-4,31,22,16,31,22,16,100,100,100,0.00,40.00,13,6,25,0.00
2013-10-5,42,28,20,37,21,-5,100,81,19,0.00,40.00,11,6,25,0.00
2013-10-6,59,48,33,37,28,3,88,49,15,0.00,40.00,10,4,14,0.00
2013-10-7,54,49,45,16,5,-9,23,17,9,0.00,40.00,20,12,32,0.00
2013-10-8,46,42,38,18,10,1,44,27,16,0.00,40.00,27,16,47,0.00
2013-10-9,43,38,34,37,22,5,100,55,24,0.00,40.00,35,20,51,0.00
2013-10-10,35,30,27,35,30,27,100,100,100,0.00,40.00,21,9,32,0.00
2013-10-11,35,29,24,34,28,22,100,97,74,0.00,40.00,17,6,35,0.00
2013-10-12,42,33,28,35,24,-100,100,75,51,0.00,40.00,28,12,37,0.00
2013-10-13,34,30,27,34,30,27,100,100,100,0.00,40.00,27,15,40,0.00
2013-10-14,31,26,22,31,26,22,100,100,100,0.00,40.00,12,6,24,0.00
2013-10-15,31,23,18,31,23,18,100,100,100,0.00,40.00,12,6,21,0.00
2013-10-16,37,23,18,28,20,14,100,90,52,0.00,40.00,6,3,15,0.00
2013-10-17,36,31,26,29,24,15,100,77,46,0.00,40.00,10,6,25,0.00
2013-10-18,41,30,23,29,20,-2,100,72,24,0.00,40.00,11,7,24,0.00
2013-10-19,45,34,29,14,4,-100,37,29,19,0.00,40.00,16,6,29,0.00
2013-10-20,43,36,31,28,15,8,86,43,31,0.00,40.00,19,8,29,0.00
2013-10-21,48,38,28,30,25,19,100,63,35,0.00,40.00,10,6,18,0.00
2013-10-22,55,44,37,23,16,6,56,33,20,0.00,40.00,8,4,11,0.00
2013-10-23,55,44,40,22,14,3,43,29,18,0.00,40.00,13,4,18,0.00
2013-10-24,53,45,41,19,14,6,40,29,19,0.00,40.00,15,6,20,0.00
2013-10-25,51,43,37,21,13,8,46,29,18,0.00,40.00,11,5,19,0.00
2013-10-26,53,41,36,25,12,-100,61,34,16,0.00,40.00,11,5,16,0.00
2013-10-27,47,41,35,36,14,1,100,37,19,0.00,40.00,27,13,38,0.00
2013-10-28,37,30,24,35,28,-100,100,97,60,0.00,40.00,55,25,68,0.00
2013-10-29,27,23,21,27,23,20,100,100,100,0.00,40.00,19,8,26,0.00
2013-10-30,27,21,19,27,21,19,100,100,100,0.00,40.00,14,6,26,0.00
2013-10-31,30,24,20,30,24,20,100,100,100,0.00,40.00,17,6,30,0.00
2013-11-1,37,29,24,37,28,15,100,98,46,0.00,40.00,11,6,26,0.00
2013-11-2,46,39,32,8,-2,-100,36,19,11,0.00,40.00,32,16,56,0.00
2013-11-3,36,21,10,26,16,8,100,85,31,0.00,40.00,28,10,45,0.00
2013-11-4,20,13,10,20,13,10,100,100,100,0.00,40.00,13,6,22,0.00
2013-11-5,23,14,9,19,12,7,100,93,58,0.00,40.00,17,6,24,0.00
2013-11-6,30,24,19,30,24,19,100,100,100,0.00,40.00,16,8,25,0.00
2013-11-7,39,35,28,34,23,9,100,67,30,0.00,40.00,23,12,42,0.00
2013-11-8,40,36,32,23,18,13,60,48,35,0.00,40.00,18,9,35,0.00
2013-11-9,47,38,35,19,14,-100,50,40,26,0.00,40.00,15,7,26,0.00
2013-11-10,49,41,37,16,10,7,34,28,21,0.00,40.00,13,4,18,0.00
2013-11-11,54,44,38,15,9,0,30,24,16,0.00,40.00,10,4,16,0.00
2013-11-12,52,43,38,12,4,-6,23,19,13,0.00,40.00,11,6,14,0.00
2013-11-13,45,38,28,32,14,1,100,47,18,0.00,40.00,12,6,24,0.00
2013-11-14,37,30,26,28,8,-15,100,47,10,0.00,40.00,24,9,47,0.00
2013-11-15,30,23,14,26,20,9,100,90,41,0.00,40.00,15,7,31,0.00
2013-11-16,20,18,15,20,17,-100,100,99,97,0.00,40.00,22,10,45,0.00
2013-11-17,29,24,19,29,23,19,100,98,73,0.00,40.00,18,9,39,0.00
2013-11-18,36,31,27,33,20,5,100,67,28,0.00,40.00,19,10,32,0.00
2013-11-19,34,29,26,31,28,26,100,97,71,0.00,40.00,24,8,45,0.00
2013-11-20,30,27,25,30,27,25,100,100,100,0.00,40.00,12,6,18,0.00
2013-11-21,26,19,12,26,19,12,100,100,100,0.00,40.00,18,8,30,0.00
2013-11-22,26,17,12,16,6,-15,100,73,16,0.00,40.00,20,15,27,0.00
2013-11-23,26,23,22,24,10,-100,100,72,20,0.00,40.00,28,18,36,0.00
2013-11-24,34,25,21,34,23,-1,100,91,35,0.00,40.00,18,7,23,0.00
2013-11-25,34,27,22,23,13,1,93,57,36,0.00,40.00,14,7,28,0.00
2013-11-26,45,32,25,21,13,-12,86,51,12,0.00,40.00,12,7,20,0.00
2013-11-27,40,36,33,15,6,-4,42,28,15,0.00,40.00,13,7,15,0.00
2013-11-28,36,32,28,20,8,-1,72,38,25,0.00,40.00,23,12,28,0.00
2013-11-29,38,30,27,28,17,4,77,60,35,0.00,40.00,10,3,13,0.00
2013-11-30,38,29,24,26,12,-100,100,56,27,0.00,40.00,10,4,14,0.00
2013-12-1,31,27,23,31,27,23,100,100,98,0.00,40.00,17,8,35,0.00
2013-12-2,32,28,25,31,25,16,100,88,52,0.00,40.00,17,10,40,0.00
2013-12-3,25,14,2,25,14,1,100,100,100,0.00,40.00,15,6,30,0.00
2013-12-4,5,-3,-9,5,-3,-9,100,100,100,0.00,40.00,14,6,25,0.00
2013-12-5,7,-6,-10,7,-6,-10,100,100,100,0.00,40.00,8,4,12,0.00
2013-12-6,1,-4,-10,1,-4,-10,100,100,100,0.00,40.00,19,9,34,0.00
2013-12-7,8,3,0,8,2,-100,100,99,100,0.00,40.00,29,18,40,0.00
2013-12-8,3,-4,-7,3,-4,-7,100,100,100,0.00,40.00,25,10,36,0.00
2013-12-9,10,-7,-10,9,-12,-100,100,100,100,0.00,40.00,19,8,29,0.00
2013-12-10,18,13,9,18,13,9,100,100,100,0.00,40.00,20,10,32,0.00
2013-12-11,28,20,13,19,14,6,100,80,41,0.00,40.00,13,5,18,0.00
2013-12-12,34,30,25,8,2,-8,41,30,22,0.00,40.00,17,8,23,0.00
2013-12-13,26,20,14,19,10,-7,100,71,23,0.00,40.00,18,10,37,0.00
2013-12-14,26,18,13,23,11,-100,100,81,32,0.00,40.00,15,8,35,0.00
2013-12-15,37,31,26,23,12,3,88,47,29,0.00,40.00,23,11,38,0.00
2013-12-16,36,32,28,19,10,-9,60,40,17,0.00,40.00,18,8,30,0.00
2013-12-17,44,37,31,5,1,-9,26,21,15,0.00,40.00,13,6,22,0.00
2013-12-18,40,34,27,28,8,-1,100,40,20,0.00,40.00,22,9,34,0.00
2013-12-19,29,23,17,29,23,17,100,100,100,0.00,40.00,25,12,52,0.00
2013-12-20,19,13,8,19,13,8,100,100,100,0.00,40.00,15,5,22,0.00
2013-12-21,18,15,10,18,15,10,100,100,100,0.00,40.00,18,8,35,0.00
2013-12-24,23,17,13,18,9,-7,100,73,36,0.00,40.00,16,7,30,0.00
2013-12-25,22,21,18,-8,-11,-14,28,24,20,0.00,40.00,10,7,24,0.00
2013-12-26,38,32,27,20,12,-5,72,45,16,0.00,40.00,9,6,26,0.00
2013-12-27,40,33,27,27,16,8,100,49,29,0.00,40.00,11,5,15,0.00
2013-12-28,36,26,11,19,10,-100,100,58,24,0.00,40.00,13,8,29,0.00
2013-12-29,28,15,10,11,2,-13,100,67,20,0.00,40.00,10,7,24,0.00
2013-12-30,31,25,22,26,23,18,100,93,57,0.00,40.00,13,5,24,0.00
2013-12-31,27,25,24,27,25,24,100,100,100,0.00,40.00,20,10,29,0.00
2014-1-1,33,25,22,22,9,-7,83,54,26,0.00,40.00,10,6,21,0.00
2014-1-2,34,27,23,12,2,-4,41,34,28,0.00,40.00,10,7,21,0.00